Simultaneous Nadir Overpasses (SNOs) Predictions

Prediction of SNOs between AQUA and METOP-A Satellite Orbit:

Table of predicted SNOs for the next 14.0 days since TLE Epoch: 5/11/2018
Index Date (AQUA) Time (AQUA) Lat,Lon (AQUA) SZA (AQUA ) Date (METOP-A) Time (METOP-A) Lat,Lon (METOP-A) SZA (METOP-A ) Distance(km) Time Diff (sec)
1 05/12/2018 17:59:53 -74.33, 83.33 123.93 05/12/2018 17:59:12 -74.34, 83.34 123.91 0.58 41
2 05/12/2018 18:49:22 74.38,-109.15 56.12 05/12/2018 18:49:51 74.37,-109.25 56.11 3.33 29
3 05/15/2018 13:34:07 -74.33, 149.78 124.61 05/15/2018 13:33:30 -74.33, 149.71 124.60 1.90 37
4 05/15/2018 14:23:36 74.38, -42.71 55.44 05/15/2018 14:24:08 74.40, -42.75 55.46 3.05 32
5 05/18/2018 09:08:21 -74.33,-143.79 125.25 05/18/2018 09:07:47 -74.36,-143.79 125.21 3.56 34
6 05/18/2018 09:57:50 74.38, 23.72 54.81 05/18/2018 09:58:26 74.39, 23.62 54.81 3.06 36
7 05/21/2018 04:42:34 -74.34, -77.36 125.83 05/21/2018 04:42:04 -74.35, -77.43 125.81 2.16 30
8 05/21/2018 05:32:03 74.40, 90.13 54.23 05/21/2018 05:32:42 74.42, 90.10 54.25 2.98 39
9 05/24/2018 00:16:48 -74.35, -10.95 126.36 05/24/2018 00:16:21 -74.38, -10.94 126.33 3.03 27
10 05/24/2018 01:06:17 74.41, 156.53 53.70 05/24/2018 01:07:00 74.40, 156.46 53.69 2.23 43




NCC Satellite Simultaneous Nadir Overpasses (SNOs) Prediction Service
